Location: Arbon
(43.0005°N, 0.7472°E)
Time: 20:48:09
(UTC+00:00)

Explorer 7 - Pass Details

Date: 04 December 2020
Orbit: 484 x 678 km, 50.3° (Epoch: 25 January)

Event Time Altitude Azimuth Distance (km) Brightness Sun altitude
Rises 01:35:36 0° 269° (W) 2,957 - -59.4°
Reaches altitude 10° 01:38:07 10° 277° (W) 2,021 - -59.1°
Maximum altitude 01:42:28 38° 346° (NNW) 940 - -58.4°
Drops below altitude 10° 01:46:34 10° 55° (NE) 1,911 - -57.7°
Sets 01:48:54 0° 64° (ENE) 2,776 - -57.4°
